This is the latest recevied weather packets stored in our database for station/object K7LDN-13. If no packets are shown the sender has not sent any weather packets the latest 10 day(s).
| Time | Temp. | Humidity | Pressure | Rain* | Wind** | Luminosity | Snow |
|---|---|---|---|---|---|---|---|
| 1777841636 | 23.89° C | 15% | 1015.7 hPa | 0 mm | - | 590 W/m² | - |
| 1777841333 | 24.44° C | 15% | 1015.6 hPa | 0 mm | - | 700 W/m² | - |
| 1777841030 | 24.44° C | 16% | 1015.6 hPa | 0 mm | - | 681 W/m² | - |
| 1777840727 | 23.89° C | 16% | 1015.7 hPa | 0 mm | - | 765 W/m² | - |
| 1777840424 | 23.89° C | 16% | 1015.9 hPa | 0 mm | - | 799 W/m² | - |
| 1777840121 | 23.89° C | 17% | 1015.9 hPa | 0 mm | - | 792 W/m² | - |
| 1777839819 | 23.89° C | 18% | 1015.9 hPa | 0 mm | - | 645 W/m² | - |
| 1777839518 | 23.33° C | 18% | 1016.2 hPa | 0 mm | - | 608 W/m² | - |
| 1777839214 | 23.89° C | 18% | 1016.2 hPa | 0 mm | - | 604 W/m² | - |
| 1777838912 | 23.33° C | 18% | 1016.4 hPa | 0 mm | - | 630 W/m² | - |
| 1777838607 | 24.44° C | 19% | 1016.2 hPa | 0 mm | - | 746 W/m² | - |
| 1777838305 | 23.89° C | 18% | 1016.4 hPa | 0 mm | - | 830 W/m² | - |
| 1777838001 | 23.89° C | 18% | 1016.5 hPa | 0 mm | - | 814 W/m² | - |
| 1777837699 | 23.89° C | 18% | 1016.5 hPa | 0 mm | - | 811 W/m² | - |
| 1777837394 | 23.33° C | 20% | 1016.6 hPa | 0 mm | - | 925 W/m² | - |
| 1777837091 | 23.33° C | 19% | 1016.6 hPa | 0 mm | - | 938 W/m² | - |
| 1777836787 | 23.89° C | 20% | 1016.9 hPa | 0 mm | - | 885 W/m² | - |
| 1777836483 | 22.78° C | 20% | 1016.9 hPa | 0 mm | - | 853 W/m² | - |
| 1777836178 | 23.33° C | 19% | 1017 hPa | 0 mm | - | 851 W/m² | - |
| 1777835875 | 22.78° C | 20% | 1017.2 hPa | 0 mm | - | 854 W/m² | - |
| 1777835572 | 22.22° C | 21% | 1017.2 hPa | 0 mm | - | 851 W/m² | - |
| 1777835269 | 21.67° C | 21% | 1017.2 hPa | 0 mm | - | 745 W/m² | - |
| 1777834966 | 21.67° C | 21% | 1017.3 hPa | 0 mm | - | 477 W/m² | - |
| 1777834663 | 21.11° C | 21% | 1017.3 hPa | 0 mm | - | 493 W/m² | - |
| 1777834358 | 21.67° C | 21% | 1017.5 hPa | 0 mm | - | 616 W/m² | - |
* Rain latest hour (hover to see other rain measurements)
** Current wind speed in m/s (hover to see current wind gust speed)